Powrót do katalogu

NOAA 16 DEB

AktywnySSO
NORAD 42355·DEBRIS·🇺🇸 United States

Wystrzelony Sep 21, 2000 z Vandenberg Space Force Base

Loading…

Następne Przeloty (najbliższe 24 godziny)

TLE

ŚwieżeSource: Space-Track

Epoka: Sep 14, 2026, 06:48 UTC

1 42355U 00055QX  26257.28347087  .00001600  00000-0  82638-3 0  9997
2 42355  98.6819 280.6509 0033910 347.1706  12.8603 14.16143408543213

Śledź NOAA 16 DEB w czasie rzeczywistym z AllMySat

Download on the App Store